• Join FlightAware (Why Join?)
  • Login
  • US Flag GB Flag 
18:32 EST


 

Airport Tracker/Info


-or-


 

Live Flight TrackerFlight Track Log ✈ FLG4262 ✈ 28-Sep-2013 ✈ KDTW - KBGM

Flight Track Log - Related Links

Times and Time Zones

All times are in EDT time to prevent confusion due to time zone crossing. See the FLG4262 flight status page for this flight to view local times or setup timezone preferences in your user account.

Time Position Orientation Groundspeed Altitude Reporting Facility
EDT Latitude Longitude Course Direction KTS MPH feet Rate Location/Type
15:47 42.1900 -83.3564 182° South 169 194 1,100  Level Cleveland Center
15:48 42.1753 -83.3572 182° South 167 192 1,900 2,093 Climbing Cleveland Center
15:49 42.1167 -83.3572 180° South 204 235 4,100 1,835 Climbing Cleveland Center
15:50 42.0614 -83.3411 168° South 267 307 5,600 1,355 Climbing Cleveland Center
15:50 42.0592 -83.3392 147° Southeast 236 272 5,500 2,557 Descending Cleveland Center
15:51 42.0375 -83.2450 107° East 294 338 8,200 3,000 Climbing Cleveland Center
15:51 42.0408 -83.2225 79° East 284 327 8,600 1,944 Climbing Cleveland Center
15:52 42.0803 -83.1206 62° Northeast 306 352 10,500 1,597 Climbing Cleveland Center
15:53 42.1267 -83.0122 60° Northeast 333 383 11,900 1,694 Climbing Cleveland Center
15:54 42.1739 -82.9025 60° Northeast 340 391 14,000 1,742 Climbing Cleveland Center
15:55 42.2217 -82.7908 60° Northeast 346 398 15,500 1,258 Climbing Cleveland Center
15:56 42.2711 -82.6733 60° Northeast 358 412 16,600 1,210 Climbing Cleveland Center
15:57 42.3331 -82.5300 60° Northeast 369 425 18,000 1,306 Climbing Cleveland Center
15:58 42.3644 -82.3986 72° East 376 433 19,300 1,258 Climbing Cleveland Center
15:59 42.3592 -82.2567 93° East 378 435 20,600 1,161 Climbing Cleveland Center
16:00 42.3522 -82.1022 93° East 378 435 21,700 1,016 Climbing Cleveland Center
16:01 42.3458 -81.9589 93° East 379 436 22,700 968 Climbing Cleveland Center
16:02 42.3400 -81.8131 93° East 383 441 23,700 968 Climbing Cleveland Center
16:03 42.3331 -81.6678 94° East 384 442 24,700 878 Climbing Cleveland Center
16:04 42.3258 -81.5206 94° East 386 444 25,500 780 Climbing Cleveland Center
16:05 42.3189 -81.3736 94° East 388 447 26,300 726 Climbing Cleveland Center
16:06 42.3114 -81.2264 94° East 389 448 27,000 339 Climbing Cleveland Center
16:07 42.3042 -81.0764 94° East 395 455 27,000  Level Cleveland Center
16:08 42.2964 -80.9192 94° East 412 474 27,000  Level Cleveland Center
16:09 42.2889 -80.7306 93° East 425 489 27,000  Level Cleveland Center
16:10 42.2900 -80.5681 89° East 428 493 27,000  Level Cleveland Center
16:11 42.2906 -80.4028 90° East 435 501 27,000  Level Cleveland Center
16:12 42.2911 -80.2350 90° East 442 509 27,000  Level Cleveland Center
16:14 42.2903 -80.0686 90° East 443 510 27,000  Level Cleveland Center
16:15 42.2892 -79.9078 90° East 432 497 27,000  Level Cleveland Center
16:16 42.2883 -79.7464 90° East 431 496 27,000  Level Cleveland Center
16:17 42.2881 -79.5853 90° East 431 496 27,000  Level Cleveland Center
16:18 42.2864 -79.3936 91° East 430 495 27,000  Level Cleveland Center
16:19 42.2844 -79.2294 91° East 440 506 27,000  Level Cleveland Center
16:20 42.2831 -79.0642 91° East 441 507 27,000  Level Cleveland Center
16:21 42.2811 -78.8797 91° East 447 514 27,000 -145 Level Cleveland Center
16:22 42.2792 -78.7139 91° East 446 513 26,700 -871 Descending Cleveland Center
16:23 42.2761 -78.5508 91° East 439 505 25,200 -1,403 Descending Cleveland Center
16:24 42.2739 -78.3958 91° East 422 486 23,800 -1,452 Descending Cleveland Center
16:25 42.2711 -78.2442 91° East 409 471 22,200 -1,694 Descending Cleveland Center
16:26 42.2686 -78.0656 91° East 403 464 20,300 -1,707 Descending Cleveland Center
16:27 42.2658 -77.9197 91° East 396 456 18,700 -1,415 Descending Cleveland Center
16:28 42.2631 -77.7769 91° East 387 445 17,400 -1,403 Descending Cleveland Center
16:29 42.2586 -77.6397 92° East 374 430 15,800 -1,161 Descending Cleveland Center
16:30 42.2550 -77.5047 92° East 366 421 15,000 -387 Descending Cleveland Center
16:31 42.2519 -77.3489 91° East 352 405 15,000  Level Cleveland Center
16:32 42.2481 -77.2181 92° East 350 403 15,000  Level Cleveland Center
16:33 42.2442 -77.0819 92° East 364 419 15,000  Level Cleveland Center
16:34 42.2414 -76.9919 92° East 354 407 15,000 -909 Level New York Center
16:35 42.2375 -76.8656 92° East 347 399 13,500 -1,373 Descending New York Center
16:36 42.2342 -76.7700 93° East 336 387 12,300 -1,448 Descending New York Center
16:36 42.2331 -76.7139 92° East 306 352 11,400 -1,912 Descending Cleveland Center
16:37 42.2289 -76.5872 93° East 284 327 9,400 -1,171 Descending Cleveland Center
16:38 42.2308 -76.4878 88° East 271 312 9,000 -242 Descending Cleveland Center
16:39 42.2475 -76.3922 77° East 270 311 8,900 -194 Descending Cleveland Center
16:40 42.2606 -76.2906 80° East 274 315 8,600 -1,122 Descending Cleveland Center
16:41 42.2739 -76.2000 79° East 256 295 6,600 -1,951 Descending Cleveland Center
16:42 42.2864 -76.1158 79° East 240 276 4,600 -1,563 Descending Cleveland Center
16:44 42.2653 -76.0247 107° East 209 241 2,900 -1,071 Descending New York Center
16:45 42.2328 -76.0025 153° Southeast 143 165 2,100 -800 Descending New York Center